{"data":{"norad_id":64584,"intl_designator":"2025-135BJ","name":"ICEYE-X53","alt_names":[],"object_type":"PAYLOAD","status":"ACTIVE","operator":null,"country":"FIN","launch_date":"2025-06-23","launch_site_code":"AFWTR","launch_vehicle":null,"mission":null,"orbit_class":"UNKNOWN","rcs_meters":null,"size_class":null,"mass_kg":null,"dimensions":null,"purposes":[],"wikipedia_slug":null,"has_3d_model":false,"image_url":null,"decayed_at":null,"tle_current":{"epoch":"2026-05-25T03:46:12.041184Z","epoch_age_seconds":57554,"freshness":"FRESH","line1":"1 64584U 25135BJ  26145.15708381  .00003127  00000+0  25031-3 0  9990","line2":"2 64584  97.7396 262.0378 0001715 136.4045 223.7315 15.00909657 50623","mean_motion":15.00909657,"eccentricity":0.0001715,"inclination_deg":97.7396,"raan_deg":262.0378,"arg_perigee_deg":136.4045,"mean_anomaly_deg":223.7315,"bstar":0.00025031,"rev_number":5062,"period_min":95.941817236239,"perigee_km":562.89935052167,"apogee_km":565.28053436293,"semimajor_km":6942.2269424423,"source":"CELESTRAK","updated_at":"2026-05-25T13:38:04.625374Z"}}}